Weather observations for the past three days for
Key West Naval Air Station
Imperial (Metric)
Date Time (edt) Wind (mph) Vis. (mi.) Weather Sky Cond. Temperature (ºF) Relative Humidity Wind Chill (°F) Heat Index (°F) Pressure Precipitation (in)
Air Dwpt 6 hour altimeter (in) sea level (mb) 1 hr 3 hr 6 hr
Max. Min.
22 21:53 S 8 10.00 Mostly Cloudy SCT024 BKN050 BKN200 86 79 80% 100 30.02 1016.3
22 20:53 SE 8 10.00 Mostly Cloudy FEW030 BKN200 84.9 78.1 80% 97 30.02 1016.5
22 19:53 E 9 10.00 Mostly Cloudy FEW060 BKN150 86 78.1 88 82 77% 98 30.02 1016.3 0.02
22 18:53 E 8 10.00 Mostly Cloudy SCT060 BKN150 86 79 80% 100 30.01 1016.2
22 17:53 SE 10 10.00 Mostly Cloudy SCT060 BKN150 84.9 80.1 85% 99 30 1015.9
22 16:53 SE 13 10.00 Overcast FEW035 SCT060 OVC150 84.9 78.1 80% 97 29.98 1015.1 0.02
22 15:53 S 18 G 28 7.00 Light Rain SCT015 BKN038 OVC060 82 82 100% 95 30.02 1016.3 0.02
22 14:53 E 13 10.00 Overcast SCT045 BKN090 OVC120 86 79 80% 100 30.03 1016.8
22 13:53 SE 16 G 26 10.00 Mostly Cloudy SCT014 BKN031 86 80.1 91 81 83% 101 30.04 1016.9 0.4
22 12:53 E 12 10.00 Mostly Cloudy SCT014 BKN031 90 84 83% 115 30.05 1017.3
22 11:53 E 10 10.00 Mostly Cloudy FEW014 SCT025 BKN031 89.1 82 80% 110 30.05 1017.4
22 10:53 E 12 10.00 Mostly Cloudy FEW014 SCT025 BKN031 88 84 88% 112 30.05 1017.6 0.01 0.4
22 09:53 NE 9 4.00 Light Rain FEW014 SCT025 BKN031 81 79 94% 89 30.06 1017.7 0.39
22 08:53 E 10 10.00 A Few Clouds FEW050 89.1 81 77% 108 30.04 1016.9
22 07:53 SE 14 10.00 Partly Cloudy FEW016 FEW031 SCT070 86 80.1 87.1 84.9 83% 101 30.02 1016.5
22 06:53 E 10 10.00 Fair CLR 87.1 82 85% 106 30.01 1016.1
22 05:53 E 12 10.00 Fair CLR 87.1 82 85% 106 30.01 1016.0
22 04:53 E 10 10.00 A Few Clouds FEW018 87.1 82 85% 106 30.01 1015.9
22 03:53 E 9 10.00 Fair CLR 86 82.9 91% 106 30 1015.9
22 02:53 E 9 10.00 Partly Cloudy SCT016 SCT023 87.1 82 85% 106 30 1015.7
22 01:53 E 7 10.00 Fair CLR 84.9 79 89.1 82.9 82% 98 30.01 1016.2
22 00:53 E 9 10.00 Fair CLR 86 80.1 83% 101 30.03 1016.9
21 22:53 SE 9 10.00 Light Rain FEW025 SCT050 BKN085 82.9 77 82% 92 30.06 1017.6
21 20:53 SE 9 10.00 Mostly Cloudy SCT017 BKN250 88 77 70% 100 30.03 1016.6
21 19:53 E 14 10.00 Mostly Cloudy SCT017 BKN250 89.1 82.9 93 89.1 82% 112 30.02 1016.5
21 18:53 E 16 10.00 Mostly Cloudy SCT022 BKN250 90 82 78% 111 29.99 1015.5
21 17:53 E 18 10.00 Mostly Cloudy SCT022 BKN250 90 82.9 80% 113 29.98 1014.9
21 16:53 E 17 10.00 Mostly Cloudy SCT022 BKN250 91.9 82 73% 114 30.01 1015.9
21 15:53 E 18 10.00 Mostly Cloudy SCT022 BKN250 93 82 70% 116 30.01 1016.0
21 14:53 E 17 10.00 Mostly Cloudy SCT022 BKN250 93 82 70% 116 30.02 1016.5
21 13:53 E 16 10.00 Mostly Cloudy SCT022 BKN250 93 82 93 84.9 70% 116 30.03 1016.8
21 12:53 E 16 10.00 Mostly Cloudy SCT022 BKN250 91.9 81 70% 112 30.05 1017.3
21 11:53 E 15 10.00 Mostly Cloudy SCT022 BKN250 91 81 72% 111 30.06 1017.7
21 10:53 E 14 10.00 Mostly Cloudy SCT022 SCT150 BKN250 89.1 81 77% 108 30.05 1017.5
21 09:53 E 14 10.00 Overcast SCT020 SCT150 OVC250 88 81 80% 106 30.03 1016.8
21 08:53 E 10 10.00 Overcast SCT020 SCT150 OVC250 86 80.1 83% 101 30.04 1017.0
21 07:53 NE 7 10.00 Overcast SCT020 SCT150 OVC250 84.9 80.1 84.9 84 85% 99 30.02 1016.3
21 06:53 NE 8 10.00 Mostly Cloudy FEW022 BKN250 84.9 80.1 85% 99 30.01 1016.2
21 05:53 E 8 10.00 Fair CLR 84.9 79 82% 98 30.01 1016.2
21 04:53 E 9 10.00 A Few Clouds FEW034 84 80.1 88% 97 30.01 1015.9
21 03:53 E 8 10.00 Fair CLR 84 79 85% 96 30.01 1016.0
21 02:53 E 8 10.00 A Few Clouds FEW022 84.9 80.1 85% 99 30.01 1015.9
21 01:53 E 10 10.00 Light Rain FEW028 SCT100 SCT120 84.9 80.1 87.1 84.9 85% 99 30.03 1016.6
21 00:53 E 10 10.00 A Few Clouds FEW022 FEW030 86 79 80% 100 30.05 1017.6
20 23:53 E 14 10.00 A Few Clouds FEW023 86 79 80% 100 30.06 1017.7
20 22:53 E 16 10.00 A Few Clouds FEW023 86 79 80% 100 30.05 1017.3
20 21:53 E 16 10.00 Mostly Cloudy SCT022 BKN250 87.1 79 77% 101 30.04 1016.9
20 20:53 E 14 10.00 Mostly Cloudy SCT022 BKN250 87.1 79 77% 101 30.02 1016.6
20 18:53 E 14 10.00 Mostly Cloudy SCT022 BKN250 89.1 78.1 70% 103 29.99 1015.3
20 17:53 E 17 10.00 Mostly Cloudy FEW022 BKN250 91 79 68% 108 30 1015.7
20 16:53 E 18 10.00 Mostly Cloudy SCT022 BKN250 89.1 79 72% 105 29.99 1015.3
20 15:53 E 17 G 26 10.00 Mostly Cloudy SCT022 BKN250 91.9 78.1 64% 107 29.99 1015.5
20 14:53 E 15 10.00 Mostly Cloudy SCT022 BKN250 91 78.1 66% 106 30.02 1016.5
20 13:53 E 16 G 25 10.00 Mostly Cloudy SCT022 BKN250 91 80.1 91.9 84 70% 109 30.03 1016.7
20 12:53 E 14 10.00 Overcast FEW022 FEW120 OVC250 89.1 80.1 75% 106 30.03 1016.7
20 11:53 E 15 G 24 10.00 Overcast SCT020CB BKN120 OVC200 88 79 75% 103 30.03 1016.9
20 10:53 E 12 10.00 Overcast SCT025 BKN060 OVC200 87.1 77 72% 99 30.03 1016.7
20 09:53 E 14 10.00 Mostly Cloudy SCT015 SCT025 BKN250 88 79 75% 103 30 1015.6
20 08:53 E 21 G 31 10.00 Mostly Cloudy and Breezy SCT015 SCT025 BKN250 86 79 80% 100 29.99 1015.3
20 07:53 E 13 10.00 Mostly Cloudy SCT022 BKN250 84.9 80.1 86 84 85% 99 29.98 1015.1 0.01
20 06:53 E 10 10.00 Partly Cloudy SCT022 SCT250 84 79 85% 96 29.94 1013.8
20 05:53 E 9 10.00 Thunderstorm FEW022 84.9 80.1 85% 99 29.94 1013.8
20 04:53 E 7 10.00 Thunderstorm FEW020 SCT026 SCT085 84 80.1 88% 97 29.94 1013.8 0.01 0.01
20 03:53 E 12 10.00 Fair CLR 86 79 80% 100 29.94 1013.9
20 02:53 E 12 10.00 Partly Cloudy SCT025 SCT044 86 80.1 83% 101 29.95 1013.9
20 01:53 E 13 10.00 Partly Cloudy FEW021 SCT034 86 80.1 88 84.9 83% 101 29.96 1014.3
20 00:53 E 14 10.00 Fair CLR 86 79 80% 100 29.95 1014.1
19 23:53 E 12 10.00 Fair CLR 86 78.1 77% 98 29.97 1014.5
19 22:53 E 16 10.00 Fair CLR 87.1 78.1 75% 100 29.96 1014.4
Date Time (edt) Wind (mph) Vis. (mi.) Weather Sky Cond. Air Dwpt Max. Min. Relative Humidity Wind Chill (°F) Heat Index (°F) altimeter (in) sea level (mb) 1 hr 3 hr 6 hr
6 hour
Temperature (ºF) Pressure Precipitation (in)